Wind_Speed
7 6 6 8 6 2 4 3 4 8 11 11 12 10 7 7 8 6 7 10 5 5 7 8 11 12 8 8 11 8 7 7 7 6 4 8 12 14 14 15 13 13 12 14 21 21 18 18 16 17 16 15 17 18 17 17 17 18 17 18 17 16 15 14 12 9 8 9 7 6 7 7 6 6 8 8 8 7 6 7 7 7 6 5 4 3
4 6 8 9 2 3 5 8 8 7 9 9 10 9 5 6 7 3 6 9 6 2 5 7 10 9 9 11 9 5 3 7 5 8 5 6 7 8 10 17 16 12 12 13 17 20 20 19 16 18 19 17 17 18 18 17 17 18 18 18 18 17 16 13 12 10 8 9 8 6 7 8 7 7 11 11 9 7 7 7 6 7 6 5 4 4
5 8 13 11 2 2 3 6 7 8 8 8 7 7 6 7 6 5 8 4 5 3 5 7 9 9 10 9 4 5 7 4 5 9 8 6 8 8 6 15 16 13 13 13 12 16 19 18 16 18 18 16 15 16 17 17 18 19 18 18 19 18 16 14 12 11 9 10 9 7 7 9 10 12 14 13 10 8 8 8 7 7 7 6 5 4
6 5 7 5 4 2 5 5 6 7 6 7 6 7 7 8 8 2 6 2 1 0 3 7 8 9 8 4 3 9 9 4 5 10 10 7 6 7 6 12 17 14 13 14 12 13 16 16 16 17 16 16 16 16 18 19 19 19 18 19 19 18 17 16 14 13 12 12 10 10 10 11 11 11 12 11 9 8 8 8 8 8 8 7 7 6
11 2 6 6 5 0 4 4 5 5 5 7 8 9 9 9 9 5 4 5 4 4 3 8 8 6 7 4 6 10 5 6 8 10 10 7 6 7 5 9 17 16 12 13 14 13 14 14 17 19 17 17 19 20 22 22 20 20 19 20 20 19 19 17 16 16 16 15 13 11 11 12 12 10 10 10 8 7 8 8 8 8 8 8 8 8
8 2 5 4 2 3 4 5 7 6 5 7 9 10 12 13 11 6 1 4 2 5 5 7 7 5 7 8 10 10 8 9 9 8 7 7 7 7 6 6 12 14 12 11 13 12 12 14 19 21 19 19 21 23 24 23 21 21 21 21 21 20 20 19 17 18 18 17 15 13 12 12 12 11 10 10 8 8 8 7 7 8 8 8 8 8
3 1 2 3 2 4 6 7 8 7 7 6 3 6 11 11 11 9 6 4 4 4 4 7 6 4 5 8 8 8 10 10 8 7 8 7 7 7 5 4 6 11 11 8 10 11 10 12 16 19 20 21 21 23 25 24 22 22 22 22 22 20 21 21 18 19 19 17 16 15 13 12 12 12 12 10 9 8 8 7 6 7 8 8 8 8
4 4 2 4 5 5 7 7 8 9 8 4 2 6 10 9 10 11 9 7 6 6 3 7 8 6 5 7 6 4 6 9 9 8 8 9 9 9 7 8 8 10 12 10 11 12 11 11 13 17 20 20 20 22 23 25 24 23 24 23 23 21 22 22 20 20 20 18 18 16 13 13 12 13 14 11 9 9 8 7 6 7 8 7 7 7
3 3 4 4 8 6 7 9 10 12 9 5 3 5 8 10 11 10 8 7 6 6 6 7 8 6 5 7 5 5 6 7 9 9 9 8 6 7 6 4 2 2 5 8 10 11 12 14 15 20 21 18 18 21 22 25 26 24 25 24 23 23 22 23 21 20 20 18 18 16 14 13 14 14 13 12 10 9 8 7 6 7 7 7 8 8
4 5 3 6 7 6 10 11 8 9 8 5 5 6 8 11 11 8 7 7 5 6 7 7 7 6 5 5 5 7 8 7 7 7 8 5 2 3 2 5 5 3 2 4 7 9 13 19 22 24 23 19 20 24 25 23 26 25 26 25 24 23 23 24 23 22 20 19 19 17 14 14 17 16 14 13 12 10 9 7 6 6 6 6 7 8
6 3 3 6 7 7 11 8 2 5 7 4 4 7 8 9 8 6 5 5 5 6 8 10 11 9 6 5 5 2 6 5 4 5 6 5 4 3 5 3 1 1 1 1 2 3 7 15 21 25 25 25 28 29 26 20 24 24 25 26 25 24 24 24 24 23 21 20 20 18 15 16 18 17 15 16 13 11 10 8 7 6 6 6 6 7
8 6 5 7 9 8 11 9 4 6 8 6 5 6 7 6 5 4 4 5 6 6 6 9 11 10 7 3 1 5 6 4 4 8 8 7 6 5 5 2 2 3 2 1 3 4 4 4 10 17 23 26 30 30 25 19 22 23 24 25 25 24 25 25 25 24 22 21 20 18 16 16 18 18 17 17 15 12 11 10 9 8 7 6 5 5
7 7 8 8 8 7 9 7 6 7 7 6 6 6 6 5 3 4 5 5 5 6 5 6 7 6 6 4 4 6 7 6 4 7 8 7 8 7 4 3 3 2 1 3 6 6 5 3 1 6 12 18 22 24 22 19 18 20 22 24 25 25 26 26 26 25 24 22 21 20 17 17 18 18 16 16 15 13 12 11 10 10 9 8 7 6
5 8 10 8 9 8 7 6 6 5 6 6 6 5 5 4 4 5 5 5 5 6 6 4 4 3 4 3 5 7 7 7 5 6 6 6 7 5 3 4 5 4 5 7 7 7 5 3 2 1 5 11 16 17 17 17 17 18 19 22 23 24 26 27 26 26 24 22 21 20 19 17 18 18 15 15 15 14 13 12 11 10 10 9 8 7
6 6 7 8 5 8 7 7 7 6 4 6 6 5 5 4 5 5 4 5 4 4 4 3 2 2 1 0 4 6 7 6 5 6 7 6 6 5 3 4 7 7 7 8 7 7 7 5 6 4 3 4 12 13 13 15 16 16 17 20 22 21 24 26 26 26 25 23 22 21 20 18 18 18 15 15 15 14 13 13 12 10 10 10 9 9
8 6 5 8 3 5 5 7 6 8 6 3 3 4 5 4 5 5 4 5 4 4 4 3 3 1 2 1 2 6 6 5 6 8 8 7 7 7 5 6 7 7 7 7 7 7 7 6 7 5 3 4 9 9 8 10 12 14 14 17 20 21 22 23 25 25 25 23 22 21 21 19 18 18 16 14 15 15 13 12 13 11 10 11 10 10
6 5 2 6 4 4 9 7 3 4 4 3 2 3 4 4 6 5 5 5 4 5 4 3 5 3 3 5 5 6 7 8 8 8 9 8 8 7 6 7 7 7 7 7 7 7 7 7 7 6 5 6 7 7 7 7 9 10 13 16 19 19 20 22 23 23 23 23 21 21 20 20 19 18 17 15 15 16 14 11 12 11 10 10 11 11
3 4 2 3 6 9 8 4 6 7 6 5 3 3 2 4 6 5 4 4 4 6 4 4 7 6 4 4 6 8 8 9 10 9 10 9 8 7 7 7 8 8 8 8 7 8 7 7 9 8 6 5 3 5 6 6 7 8 10 14 17 19 20 20 20 21 21 21 20 20 20 19 18 17 17 15 14 16 15 12 12 11 10 10 10 12
2 5 5 6 10 8 6 3 6 8 9 9 7 6 3 3 4 3 3 4 5 5 5 5 8 7 4 2 6 10 10 9 10 9 9 9 8 8 7 8 9 9 8 7 7 7 7 8 10 9 8 7 3 4 7 8 8 8 8 11 15 18 18 17 18 19 19 19 18 18 18 18 17 15 15 14 13 15 16 13 12 11 11 11 11 12
2 4 4 7 11 8 4 4 4 5 8 11 8 6 5 4 3 4 4 3 4 6 5 6 7 3 1 1 4 7 8 8 8 7 8 9 9 9 7 7 8 7 7 8 7 6 6 8 10 11 12 12 10 5 6 9 11 11 10 11 12 15 15 13 14 15 16 16 15 15 15 15 15 14 13 12 11 11 13 14 13 11 12 12 12 12
3 3 3 6 9 8 4 4 4 5 4 5 5 5 5 4 3 4 4 4 5 6 4 5 5 1 3 2 1 3 2 2 4 6 6 7 10 10 8 8 7 7 8 7 8 7 7 7 8 10 11 12 14 13 10 6 7 9 11 12 11 12 12 10 8 9 11 12 10 11 12 12 12 12 11 10 10 9 10 12 12 11 11 12 12 13
2 2 4 6 6 7 6 5 6 6 5 5 4 4 5 4 3 4 5 5 5 4 4 6 5 0 3 4 2 1 3 2 3 5 7 9 11 10 8 8 7 7 8 7 8 8 8 8 8 9 9 10 11 13 14 15 12 7 5 12 14 13 14 14 10 7 8 8 7 7 7 7 8 10 9 8 9 9 10 12 13 13 13 13 13 13
3 2 5 6 6 8 10 11 11 8 6 7 7 6 6 6 4 4 5 5 5 5 4 6 5 1 2 5 5 3 2 1 4 4 7 11 11 9 9 9 8 8 8 8 8 7 8 10 11 10 10 10 9 9 10 12 14 14 13 12 12 13 15 17 15 12 10 10 9 6 5 4 3 4 6 6 6 6 9 11 12 14 16 15 14 13
3 3 5 7 7 8 11 14 14 10 7 7 7 6 7 8 7 7 7 5 5 6 5 6 5 0 1 4 4 4 1 3 4 5 10 11 9 9 10 10 9 8 9 8 7 7 8 10 11 11 12 11 10 9 9 9 9 10 12 13 13 13 14 12 12 14 14 13 11 7 7 6 3 2 2 4 6 6 8 10 11 13 15 15 15 13
2 3 4 6 6 6 7 8 9 8 6 4 3 5 6 9 10 9 7 4 5 7 6 6 6 0 2 1 2 2 2 2 4 6 11 11 8 9 9 8 8 8 8 8 7 6 7 9 10 11 11 12 12 11 11 10 9 9 9 10 11 11 11 11 10 10 11 11 11 10 9 9 10 9 5 3 5 5 6 7 9 12 12 11 12 14
3 3 3 5 5 5 6 4 2 3 3 3 4 6 7 9 11 9 6 4 5 6 6 7 5 1 5 3 1 2 3 3 4 4 9 10 8 9 8 7 8 7 8 9 8 6 5 6 7 9 10 12 12 12 13 13 12 11 11 11 11 11 10 10 10 9 8 8 9 10 10 10 12 12 7 4 6 9 10 11 11 10 10 10 11 14
4 4 5 8 8 8 8 9 9 9 7 7 9 10 10 9 10 8 5 5 5 6 6 7 6 3 2 3 1 2 3 4 4 3 7 8 7 7 7 7 7 6 7 8 7 6 6 5 6 7 8 9 11 11 12 12 12 11 12 12 11 10 9 9 9 9 8 8 8 8 8 8 8 8 5 2 6 10 14 16 16 16 15 16 18 19
3 5 7 10 12 13 13 15 15 13 12 12 12 13 12 11 11 8 6 7 8 6 7 6 7 8 7 5 5 4 3 3 4 5 4 5 6 6 6 7 7 7 8 8 7 7 7 7 6 6 7 8 9 10 10 10 10 10 11 11 11 10 9 8 7 7 7 7 7 5 5 5 6 7 6 4 5 7 11 14 15 16 17 19 22 23
4 6 8 10 13 14 15 15 15 13 13 13 13 15 14 13 13 11 9 11 10 8 9 9 9 10 11 10 9 8 6 5 4 5 4 2 5 8 8 7 7 8 8 8 8 8 7 7 6 5 6 7 8 9 9 9 9 9 9 10 10 10 9 7 7 7 6 5 4 3 2 2 2 3 5 7 7 7 9 10 11 12 14 16 19 19
3 4 6 9 12 14 14 14 14 14 14 14 16 16 14 13 15 14 12 14 13 12 13 14 12 11 11 10 10 9 10 9 5 4 4 6 6 7 8 8 8 8 8 8 8 7 7 6 6 6 6 7 7 8 8 8 9 8 8 8 8 8 7 7 6 5 4 4 4 3 1 2 3 4 6 8 9 8 8 9 11 13 13 12 13 14
2 2 4 6 9 11 12 13 13 13 14 15 17 16 14 15 16 15 13 11 11 11 13 13 11 9 8 8 9 9 9 10 9 8 7 6 8 8 8 8 9 9 9 7 7 6 5 5 5 5 5 5 5 6 6 5 7 8 7 6 6 6 6 6 5 4 3 2 3 2 2 3 4 5 6 7 7 8 8 8 8 10 10 10 12 13
3 3 4 5 7 8 10 12 13 14 15 16 16 15 16 15 12 12 12 10 8 10 11 11 9 6 7 8 8 8 8 10 11 9 6 5 8 11 11 10 10 11 10 8 7 9 8 6 4 3 4 4 4 5 5 3 4 7 7 5 4 5 5 4 4 4 3 2 2 2 2 2 3 4 5 5 5 6 6 6 6 7 8 9 11 13
3 5 5 5 7 7 9 12 12 12 12 12 8 7 11 11 9 10 12 10 8 8 7 8 6 4 8 10 8 6 7 11 11 10 9 10 9 7 8 10 10 9 8 9 7 7 8 7 6 3 1 1 2 3 4 3 3 6 6 3 3 3 3 4 4 3 3 3 2 2 2 3 3 5 5 4 5 6 6 7 7 8 8 9 10 11
5 6 6 6 6 8 10 11 11 9 8 7 4 3 7 9 9 10 10 9 10 9 7 8 8 7 7 8 8 6 6 8 10 10 9 9 9 8 9 10 9 7 7 7 6 3 5 7 8 7 3 5 3 3 3 1 2 4 4 3 4 3 3 3 3 3 3 3 2 2 2 3 4 4 4 4 5 6 6 8 9 9 9 9 9 10
6 5 5 5 6 8 9 8 9 8 6 6 6 5 7 8 8 10 10 9 11 11 10 10 10 10 9 8 7 6 5 5 8 11 11 9 7 8 8 10 8 5 5 4 2 4 9 10 8 6 1 5 4 4 6 5 3 4 5 5 4 4 3 4 4 4 3 3 3 3 3 4 4 4 4 5 6 6 7 8 9 10 10 10 10 11
8 6 5 5 6 7 7 7 9 8 7 10 8 8 9 5 4 6 8 7 8 10 10 9 8 9 10 9 7 6 6 6 7 8 8 7 8 9 10 11 11 10 6 1 4 7 11 9 4 1 1 4 7 9 9 5 2 3 4 4 4 5 5 5 5 4 4 4 4 4 4 4 4 3 4 5 6 7 8 8 9 10 10 11 11 11
8 5 4 5 5 6 7 8 8 9 10 9 4 9 10 5 4 4 4 6 8 8 8 8 8 9 9 9 9 9 8 7 6 5 6 8 6 5 8 9 9 12 11 2 7 9 8 3 2 5 5 4 6 10 10 7 5 5 5 5 6 6 6 6 6 6 6 5 5 5 5 5 5 5 6 6 7 7 8 9 10 10 11 12 12 11
9 7 6 6 6 6 7 7 7 9 7 1 4 7 8 8 7 6 3 4 5 8 9 9 9 10 10 10 12 11 8 6 4 3 8 10 7 4 6 7 6 7 9 7 5 5 3 2 4 7 7 6 7 10 11 11 9 7 7 7 7 7 8 8 8 7 6 6 6 6 6 6 6 6 6 7 8 9 9 10 11 11 12 13 13 12
8 7 6 7 7 6 7 7 7 7 3 3 4 5 8 8 7 6 3 2 6 9 8 7 8 9 9 9 10 9 6 5 3 3 7 11 10 8 8 8 9 8 6 5 5 5 5 4 3 5 8 10 12 14 13 12 10 9 9 9 9 9 9 9 8 8 7 8 7 7 7 7 7 8 8 9 10 10 10 11 11 12 13 14 14 14
6 6 6 8 8 7 7 7 6 3 1 4 4 5 7 6 6 5 4 2 6 10 9 7 8 9 9 9 8 6 5 5 4 4 7 9 8 7 8 7 9 12 11 8 7 9 10 9 6 6 9 13 15 15 13 12 12 12 12 11 11 11 11 10 10 10 10 10 9 9 9 9 9 10 10 10 10 10 11 11 12 12 13 14 14 14
2 4 6 7 8 7 7 8 6 1 2 3 6 7 6 5 3 3 3 2 5 8 9 9 9 9 9 9 7 5 5 7 8 8 9 11 10 9 10 10 10 11 12 12 12 12 13 14 12 10 13 16 17 16 15 15 15 15 13 13 13 13 12 13 13 12 12 12 12 12 12 11 11 11 11 11 11 11 11 11 12 13 13 14 15 13
1 3 4 6 7 6 5 7 6 2 0 2 6 7 5 4 2 2 4 6 7 8 9 9 9 9 9 9 8 7 8 9 11 12 12 12 12 11 12 13 13 13 13 14 14 14 13 13 14 15 18 18 17 17 16 16 16 16 15 14 14 14 14 14 13 13 13 14 14 14 14 13 12 12 12 12 11 11 11 11 12 14 13 14 15 10
1 2 5 5 5 5 5 7 6 3 2 4 6 6 3 3 4 4 5 8 9 9 10 10 9 9 9 10 9 10 11 11 11 12 13 13 12 12 13 15 15 15 16 16 16 17 17 16 16 18 19 19 18 18 17 17 16 16 16 16 15 15 15 15 15 15 15 15 15 15 14 14 14 14 14 14 13 13 12 11 12 12 13 15 14 6
1 2 5 3 1 2 5 5 2 1 3 5 5 5 4 5 5 6 6 7 8 9 9 9 9 10 10 10 11 12 12 12 12 12 13 14 13 12 13 15 17 18 18 18 19 19 19 19 19 20 20 20 20 20 20 19 18 17 17 17 16 16 16 16 16 16 16 17 17 16 16 16 16 15 15 15 15 13 12 11 12 11 11 12 9 7
3 3 4 3 2 2 5 5 3 3 6 6 5 5 6 7 7 8 9 9 9 9 8 8 10 11 11 12 13 13 12 13 14 14 14 14 14 15 15 16 19 21 21 21 22 22 21 21 22 22 22 22 21 20 20 20 19 18 18 17 17 17 18 18 18 18 19 18 17 17 16 16 16 16 16 15 14 15 15 12 9 7 6 4 4 10
9 10 6 3 4 6 6 7 7 7 8 8 7 6 8 8 9 10 9 8 9 9 9 8 10 11 12 13 14 13 14 14 15 16 16 15 15 17 19 20 21 22 23 23 23 23 23 23 23 23 23 23 21 20 20 21 21 21 21 19 18 18 19 19 20 20 19 18 17 17 16 16 16 16 16 15 15 15 13 7 2 3 4 5 7 10
9 10 6 4 6 7 5 6 9 10 11 11 10 9 10 9 10 10 9 8 10 11 11 11 12 13 14 15 15 15 16 16 16 16 16 15 15 16 18 21 22 23 23 24 24 24 23 22 22 22 21 20 20 19 19 20 21 21 22 22 20 19 19 19 19 19 18 17 18 17 17 17 17 15 13 12 12 9 4 0 2 4 6 7 9 10
5 6 5 6 7 7 7 9 11 11 11 11 9 8 8 10 12 12 11 10 11 12 12 13 14 13 13 14 15 16 16 16 16 15 14 14 15 15 16 20 23 24 24 24 23 22 20 19 19 19 19 19 20 20 20 21 21 22 23 24 23 22 21 20 20 19 19 18 18 18 19 18 15 11 9 9 7 4 2 3 4 6 7 8 10 12
4 4 5 6 6 6 7 8 10 10 10 9 10 11 11 12 13 14 14 13 13 13 13 13 14 14 13 14 14 14 16 15 14 15 15 14 14 15 18 21 24 25 25 24 23 22 21 20 19 20 21 21 21 21 22 22 22 22 23 24 24 23 21 20 20 21 22 21 20 21 21 16 12 10 8 4 4 6 7 7 6 6 7 9 11 13
5 5 5 5 5 6 6 9 11 10 8 8 11 13 14 13 14 14 13 13 13 13 12 13 13 14 15 15 14 13 14 14 14 15 16 15 15 17 20 22 23 25 25 24 23 22 21 21 20 21 22 22 21 21 22 22 23 23 22 22 23 24 23 20 20 20 20 19 19 19 17 13 13 12 7 9 12 12 11 9 7 7 8 10 10 14
4 5 6 6 6 6 9 12 11 9 9 10 12 13 13 13 12 12 12 12 12 12 13 13 14 14 14 16 17 16 13 13 16 17 15 15 18 21 21 22 22 22 21 21 21 20 20 20 21 21 22 21 20 20 21 22 22 22 22 22 22 23 23 22 20 19 18 18 18 17 15 15 14 10 11 14 15 16 17 16 13 11 10 11 13 16
Wind_Direction
223 234 236 240 236 278 299 315 345 337 338 330 307 286 247 231 237 216 141 142 187 238 215 231 238 232 224 204 205 205 165 168 255 273 186 180 165 174 182 170 168 160 166 171 161 168 172 173 188 177 164 156 150 154 158 159 155 150 149 144 143 141 138 136 136 138 136 128 122 115 109 102 94 105 112 94 81 78 69 66 64 62 60 60 61 47
225 252 248 245 262 26 342 354 353 333 328 316 303 299 279 247 244 190 125 138 143 271 268 264 264 245 223 223 227 251 189 153 223 273 250 213 201 208 186 164 163 155 163 172 161 166 172 172 177 166 162 164 160 159 165 169 161 156 155 149 147 147 143 141 141 138 128 123 124 126 127 120 100 98 109 98 81 77 73 65 61 66 62 60 63 52
214 245 252 241 123 57 317 347 335 320 315 299 290 288 290 281 265 114 104 140 142 159 260 261 265 264 241 232 243 254 245 186 193 252 261 227 217 238 195 156 155 156 162 169 161 165 174 171 160 158 163 166 166 168 173 175 167 161 158 152 150 150 147 145 143 137 124 114 114 112 109 109 96 88 95 95 87 85 78 71 69 70 67 64 65 61
236 221 241 229 95 30 304 319 307 305 290 274 279 272 269 267 262 185 131 180 308 95 275 278 281 293 282 265 279 253 233 186 198 238 252 238 216 239 225 150 149 160 164 168 168 166 176 172 157 161 170 171 175 184 187 181 171 166 161 156 154 152 150 147 143 142 136 124 113 105 101 106 108 95 91 95 92 89 83 78 72 67 67 64 56 51
261 238 107 100 85 345 290 291 268 274 266 252 249 254 266 265 268 288 117 112 341 318 285 285 285 283 270 227 239 255 210 171 217 232 235 230 212 230 237 151 152 163 167 170 172 171 173 164 161 171 178 180 184 197 198 186 175 170 163 159 157 154 154 150 146 147 143 134 125 120 111 106 109 109 104 104 102 102 94 84 77 70 67 65 60 51
258 318 107 135 171 215 245 259 239 234 260 254 236 239 260 276 291 307 125 134 267 266 217 234 258 251 243 230 227 234 202 194 224 228 224 228 213 216 222 169 152 154 163 168 166 175 172 157 163 174 180 186 191 203 202 188 178 173 165 161 159 156 156 152 151 153 146 139 136 131 126 121 126 133 129 120 114 110 102 92 84 78 71 68 66 60
222 204 227 259 272 251 250 254 244 233 248 263 279 267 253 264 286 284 265 247 247 263 199 193 242 265 249 254 248 229 206 197 211 222 221 224 214 210 217 197 151 146 161 160 154 172 178 164 166 173 184 191 196 206 202 187 181 174 165 163 160 158 158 156 154 153 147 143 142 139 140 147 146 136 125 119 114 107 106 102 93 85 79 71 68 67
259 191 164 292 277 256 256 253 239 230 239 259 350 299 270 257 263 260 258 258 254 277 244 189 234 266 260 267 272 246 213 192 197 214 220 222 210 196 202 205 190 171 165 158 162 173 179 182 177 172 184 193 199 212 203 186 182 175 167 165 161 160 159 159 158 155 150 148 148 148 153 157 147 130 123 124 121 116 115 111 103 98 90 79 75 73
282 200 151 246 255 251 256 255 243 230 227 227 233 278 281 270 263 257 253 251 255 275 261 225 237 249 252 262 246 210 211 207 204 205 213 228 212 190 198 187 135 128 133 144 169 175 173 184 185 179 186 190 196 220 216 187 180 176 168 166 163 161 162 162 161 158 154 155 154 153 160 156 138 131 132 132 129 126 125 117 108 101 93 88 87 82
254 248 241 244 245 245 245 245 249 246 238 241 276 299 287 271 268 263 263 264 259 260 263 259 253 253 259 259 241 201 194 215 218 194 196 211 187 144 106 55 36 13 64 133 174 181 175 181 186 186 190 185 188 222 231 193 176 177 169 166 165 162 164 165 164 160 156 159 159 156 163 153 138 142 147 140 137 138 136 128 118 109 99 96 95 92
227 197 284 273 254 254 259 255 246 259 262 252 260 276 265 255 256 254 265 276 265 252 253 255 251 252 259 259 268 216 164 194 209 166 166 184 174 110 75 55 337 343 35 42 173 166 161 172 178 177 179 182 187 211 228 197 174 177 171 167 167 163 166 168 165 162 159 163 163 160 166 156 146 155 154 146 148 150 148 144 138 128 114 108 104 102
237 182 192 243 252 265 275 279 271 249 258 259 247 266 269 252 248 255 250 248 254 254 251 261 257 243 242 257 350 76 113 162 181 160 168 169 147 110 83 84 32 34 23 5 56 64 69 149 175 170 170 179 186 197 208 192 174 177 174 171 168 164 168 170 167 165 161 165 166 164 168 162 157 163 160 154 158 157 157 156 151 146 138 133 125 116
259 248 221 204 204 238 265 267 256 237 233 248 247 249 263 257 247 258 251 236 248 260 259 287 288 248 239 235 159 128 147 177 146 138 166 158 122 113 109 104 79 45 46 62 60 62 52 17 224 183 177 181 187 190 188 179 172 177 179 176 171 168 169 170 169 167 164 167 169 167 171 168 163 167 164 160 162 162 164 164 162 160 157 155 151 143
244 263 255 224 181 190 237 251 248 232 202 221 243 239 246 252 248 250 253 244 246 261 257 270 296 264 257 245 164 150 151 154 129 107 122 116 104 117 142 128 109 75 58 64 61 60 60 26 13 273 214 185 178 185 181 171 173 180 184 182 177 171 170 170 170 169 168 169 171 170 172 172 168 169 168 166 169 169 169 170 171 172 168 167 165 162
246 253 239 230 171 156 209 245 264 283 252 221 236 244 236 234 249 254 262 264 267 292 281 249 263 261 246 6 116 123 117 127 144 120 107 111 121 129 123 100 92 77 64 70 67 61 59 33 30 27 313 165 155 174 180 169 173 184 190 190 184 174 171 171 170 170 171 171 172 172 173 175 174 173 173 172 174 175 175 176 178 179 175 174 173 173
254 266 218 211 139 121 229 252 264 285 286 247 228 238 234 230 250 259 269 278 291 306 287 239 246 251 137 206 139 126 136 153 152 137 140 154 144 127 108 92 87 83 72 69 70 72 75 59 45 36 2 88 128 157 177 174 180 190 197 198 192 180 172 172 171 172 172 172 172 172 174 179 178 178 179 179 179 180 182 182 181 185 183 179 180 180
255 283 218 184 167 214 253 273 271 262 294 313 265 246 256 253 254 258 262 266 262 263 265 240 248 233 174 208 189 167 181 171 153 152 156 150 128 117 109 99 93 88 81 73 70 71 76 79 73 57 36 57 96 136 168 184 186 194 203 204 200 187 173 172 173 173 173 173 174 173 174 180 181 180 182 184 183 181 186 188 185 188 188 185 184 185
265 286 281 219 233 227 228 280 292 275 283 288 267 254 244 240 252 264 269 263 252 255 257 243 252 246 228 225 181 187 197 172 168 173 151 134 127 120 108 101 100 98 95 86 74 70 72 78 82 82 80 75 93 138 157 171 176 193 207 207 204 190 175 173 171 172 175 173 174 176 176 181 185 184 184 188 188 181 184 189 188 192 196 192 189 191
248 272 275 266 267 240 176 198 268 262 253 251 272 302 292 254 259 257 254 260 261 266 269 259 260 258 257 246 177 188 198 186 189 182 155 151 145 125 111 107 104 102 102 95 83 77 75 72 66 66 80 86 99 153 158 161 162 176 199 212 208 189 178 177 170 167 174 175 176 178 179 184 188 187 185 188 189 179 180 188 191 195 200 200 198 198
265 279 278 267 278 273 188 192 253 258 233 225 241 275 273 271 279 259 249 261 264 269 276 270 270 277 307 206 179 192 201 201 200 180 165 162 141 122 117 112 102 100 101 99 97 83 67 67 59 48 53 53 44 71 147 165 164 168 189 208 200 176 171 179 171 162 166 171 176 178 181 188 192 193 191 190 190 179 177 185 193 202 205 204 205 204
279 278 275 271 284 286 246 215 264 296 289 244 233 244 250 249 260 266 264 261 265 270 280 282 279 326 47 44 136 179 188 235 222 184 164 138 121 115 114 110 101 99 98 98 108 103 84 80 70 60 63 59 44 40 47 78 133 164 180 176 162 153 155 163 172 173 167 166 171 173 178 189 195 199 198 193 195 196 193 192 195 206 210 207 210 214
295 271 270 272 274 272 262 249 259 275 293 299 290 275 283 285 273 274 271 268 279 285 286 287 284 13 27 2 360 115 87 28 264 199 149 120 114 112 109 111 106 102 102 99 104 108 106 105 95 83 83 78 61 47 41 43 47 52 116 140 140 141 145 147 151 154 146 145 155 163 176 195 205 209 209 201 196 201 207 208 208 215 218 215 216 220
25 293 275 271 265 273 279 278 278 275 271 285 288 279 287 294 286 270 270 281 296 296 292 292 294 32 6 332 336 344 78 134 256 214 133 117 117 118 118 119 116 109 105 100 98 100 103 106 107 105 102 93 81 70 58 50 44 36 46 77 98 106 122 138 147 145 139 139 140 148 169 187 201 208 212 210 210 221 224 221 222 224 226 227 224 225
23 271 262 270 274 281 279 274 274 267 245 252 269 276 282 286 282 273 278 296 295 286 289 285 280 32 17 325 347 351 326 180 200 165 128 121 125 131 128 123 122 118 115 114 114 116 118 118 115 114 112 109 105 98 86 73 64 54 49 54 63 72 86 107 131 142 147 148 148 164 187 191 193 233 249 203 202 227 236 233 237 238 240 244 240 235
311 248 240 261 275 276 264 251 253 253 245 246 279 298 297 294 290 277 274 290 286 281 284 279 278 110 109 319 344 323 290 229 211 162 132 130 136 137 135 132 130 129 127 127 126 126 129 127 123 121 121 120 120 117 112 104 95 85 75 72 71 72 74 76 93 121 139 151 166 181 182 178 189 211 244 237 206 207 214 231 252 251 248 254 247 238
286 278 273 269 268 270 268 267 291 319 321 312 301 291 290 303 309 301 285 273 270 282 281 273 284 138 148 168 185 271 276 273 257 183 140 138 145 141 139 140 138 138 136 131 127 123 116 110 112 116 119 121 123 124 122 120 115 106 98 93 88 86 87 85 89 104 120 143 163 169 161 158 174 191 211 246 237 222 215 225 246 251 247 255 253 244
290 282 278 273 270 275 284 297 316 328 314 292 286 283 277 282 294 299 294 272 278 300 290 278 298 315 196 179 173 271 272 281 280 214 158 149 154 149 142 146 150 148 142 135 129 123 113 102 97 99 104 112 119 121 120 119 118 117 113 107 102 98 97 98 100 103 108 115 121 130 141 147 148 148 151 219 241 228 223 227 235 239 241 250 251 244
277 262 259 265 268 272 279 288 297 300 291 285 287 287 285 286 287 289 286 279 283 285 273 281 313 318 313 321 338 348 319 274 276 264 213 158 157 164 156 161 166 158 152 147 141 136 125 114 106 101 101 105 107 107 106 107 109 113 114 111 110 112 112 113 114 109 104 104 101 104 126 139 132 129 140 180 217 225 227 227 231 233 232 235 238 237
247 258 259 263 266 268 273 278 281 281 281 281 280 278 279 281 279 273 269 270 274 275 275 288 301 296 296 303 309 319 310 278 256 266 280 245 185 178 172 182 185 173 167 160 152 147 137 129 128 125 120 118 118 118 115 115 115 113 111 110 112 115 112 107 108 108 107 107 105 93 99 125 160 187 206 219 225 233 235 232 234 237 233 230 233 238
223 255 267 274 276 276 276 278 283 286 285 283 280 279 279 277 274 274 275 273 271 273 277 283 285 281 284 296 302 308 307 297 272 241 264 278 253 212 189 197 208 201 189 174 163 153 142 140 140 138 139 135 133 135 133 132 133 125 117 115 113 112 110 104 99 99 107 119 121 123 144 178 204 218 227 230 231 235 239 239 239 241 243 246 249 251
167 260 290 297 288 283 284 285 285 284 282 281 282 285 288 286 282 282 283 282 281 279 280 286 291 290 293 300 300 297 295 291 276 252 234 239 249 240 219 216 228 235 227 200 178 166 153 157 157 147 144 136 126 125 123 129 137 132 125 124 124 119 115 110 106 108 109 104 110 141 216 230 221 220 227 234 237 239 246 252 252 249 252 262 261 252
164 251 295 301 281 278 285 284 282 285 285 281 280 285 285 280 282 286 278 268 273 281 283 284 286 299 320 314 295 289 301 306 299 292 294 288 261 242 233 234 235 240 247 234 193 174 167 163 160 146 137 148 155 145 143 168 163 137 130 129 126 119 115 120 135 149 153 152 174 207 247 264 254 253 258 262 266 271 276 283 281 275 270 267 258 246
239 253 270 276 275 285 290 290 299 301 290 281 286 304 298 290 303 312 297 286 289 293 289 282 282 331 351 337 320 325 342 334 323 324 335 335 319 288 268 260 240 224 243 257 234 192 174 160 146 123 66 262 199 146 148 181 162 128 127 136 144 141 144 156 164 168 170 182 210 228 254 268 265 270 278 284 289 294 301 299 291 286 280 272 265 259
268 269 272 271 273 283 289 298 303 286 269 275 291 317 303 298 304 307 307 319 325 324 321 321 332 345 339 326 322 331 347 336 326 326 324 320 322 320 309 293 269 229 227 254 256 191 141 119 112 103 28 324 328 15 343 286 132 133 158 182 184 179 180 187 192 192 188 198 232 246 257 272 277 281 290 300 306 305 301 295 292 292 289 280 271 266
249 255 273 276 269 275 285 291 279 261 264 283 289 310 314 305 308 305 298 305 318 324 329 335 345 346 335 330 328 327 335 329 322 321 312 310 326 333 332 333 321 286 248 249 273 92 96 91 90 95 35 317 325 313 279 250 190 184 203 201 192 190 212 232 227 210 201 214 239 255 262 267 271 282 293 298 301 301 296 291 292 293 291 285 275 267
250 251 259 266 265 271 276 266 258 267 288 285 301 7 7 325 303 302 288 292 323 340 343 335 331 332 325 318 315 324 345 339 314 304 312 343 14 19 16 13 5 357 354 170 136 79 76 83 75 41 274 298 305 290 271 252 220 230 234 227 224 222 227 235 237 237 237 234 241 257 262 262 266 272 281 287 290 293 293 293 296 294 290 286 277 268
260 258 245 249 252 258 263 262 265 277 286 285 324 34 28 7 9 359 312 309 326 344 358 349 336 335 330 328 337 350 357 344 313 311 346 359 2 12 15 12 11 11 8 44 133 98 85 104 256 271 254 250 277 285 291 297 287 270 262 257 255 251 244 240 242 245 244 237 241 254 257 257 261 260 264 272 277 283 289 291 294 292 288 288 281 269
238 233 231 238 238 245 259 266 270 270 273 316 67 59 43 28 22 15 336 317 350 18 26 17 8 6 3 4 6 2 349 325 304 342 7 357 341 343 2 356 357 14 11 6 38 77 126 216 262 276 279 282 282 283 287 285 278 272 266 261 261 264 262 257 254 253 253 254 254 258 260 258 254 256 264 270 273 280 286 287 288 285 283 284 282 274
235 233 242 249 246 247 254 258 263 265 272 59 52 45 43 25 359 342 292 292 18 22 12 2 3 3 1 1 1 354 335 313 316 8 2 352 353 356 348 340 337 338 342 347 334 296 266 264 262 270 286 288 282 279 276 274 276 274 269 268 268 266 264 264 266 267 271 274 270 267 267 264 258 258 262 265 269 275 278 280 282 282 279 279 278 273
259 257 253 251 249 249 251 257 261 261 58 47 19 19 29 15 346 315 260 275 5 357 349 353 354 349 347 344 338 328 315 311 322 340 331 325 328 325 316 322 330 324 319 315 306 302 303 297 276 261 271 270 269 270 270 270 271 267 264 266 266 264 264 266 267 267 268 269 269 268 267 262 258 255 252 254 261 267 270 274 276 275 276 276 273 270
275 281 266 255 251 247 247 254 258 249 70 28 8 1 352 343 329 289 272 315 344 337 342 349 343 336 336 334 323 310 318 328 324 318 315 314 311 305 307 312 309 302 300 299 301 312 318 312 303 292 279 272 273 273 271 270 270 267 264 262 258 258 259 259 260 261 263 265 265 264 263 261 261 260 259 258 259 262 267 270 271 273 274 273 270 265
223 272 265 253 252 256 254 253 257 249 172 322 346 350 330 310 304 300 314 321 320 327 335 332 326 328 323 315 309 303 308 318 319 315 313 312 312 311 310 310 303 295 293 294 296 297 295 291 289 281 273 272 273 271 267 266 266 266 265 261 257 258 258 258 259 260 260 261 261 261 262 263 263 264 263 261 259 263 266 267 271 274 270 269 269 255
265 269 260 252 256 270 263 253 257 257 250 300 336 358 1 344 344 333 321 320 320 325 324 313 308 314 312 309 310 307 305 304 305 307 305 301 300 301 299 296 292 288 287 286 283 280 274 271 272 272 274 280 283 282 281 276 271 270 269 266 264 263 261 260 260 261 263 262 261 263 265 265 265 263 261 258 256 257 258 262 270 273 269 270 267 221
308 268 271 284 340 274 262 257 245 211 255 290 324 347 343 337 336 326 317 313 312 312 311 306 304 309 313 314 310 307 307 304 297 295 294 293 293 292 293 294 292 289 287 283 280 279 279 279 278 278 280 282 282 280 277 273 268 265 264 265 268 268 265 263 261 261 262 262 262 263 263 263 263 260 256 255 254 250 250 256 263 266 272 277 259 165
4 357 312 320 6 309 294 299 296 262 276 301 338 349 331 320 311 305 301 298 300 304 305 306 311 316 318 315 310 307 304 302 300 298 294 293 294 292 289 287 286 286 287 286 283 282 282 284 286 286 283 280 280 281 281 280 278 273 270 270 271 269 267 266 265 264 262 260 259 259 259 260 260 257 253 252 251 249 249 249 251 259 269 266 191 153
30 13 347 317 311 309 304 306 311 310 313 327 339 326 311 306 306 312 319 325 331 332 328 321 318 317 313 308 306 304 301 300 300 296 293 293 297 299 295 288 283 281 282 281 280 279 278 278 280 281 280 279 282 285 286 285 282 279 278 276 273 272 270 265 261 261 261 260 260 259 261 263 263 261 256 249 247 251 251 242 224 247 244 211 179 166
46 22 349 308 297 300 302 309 317 318 316 319 318 307 303 317 336 345 351 353 345 336 329 320 311 307 306 305 302 301 302 303 303 299 297 296 297 300 301 297 293 289 285 283 282 282 281 277 275 277 282 285 287 286 286 287 285 284 284 280 274 272 271 270 269 266 261 261 262 261 258 256 256 258 259 259 262 267 271 182 171 212 214 202 186 176
46 29 336 297 287 290 296 303 311 313 311 314 317 314 321 342 350 345 338 336 333 325 319 314 310 308 305 302 301 299 298 298 300 300 299 297 294 295 296 296 298 298 294 294 297 297 295 293 292 294 296 297 295 292 288 287 286 283 282 281 277 269 263 264 271 272 267 264 265 263 258 252 250 256 269 278 277 264 162 150 186 196 198 204 198 186
321 320 305 301 296 289 289 307 330 335 327 322 326 331 338 342 337 329 325 325 321 316 313 312 310 307 302 297 297 295 292 291 292 292 292 290 290 291 291 292 295 294 292 295 302 303 301 299 298 298 295 292 290 289 285 281 279 275 274 276 278 275 267 258 255 258 259 256 254 255 256 254 253 262 267 244 181 160 147 150 171 190 206 216 213 200
308 305 316 318 300 293 312 337 348 340 317 310 321 327 328 326 321 319 320 317 313 313 314 311 307 303 299 298 296 294 292 292 292 292 292 290 289 292 293 293 293 291 291 293 296 296 296 294 290 287 284 282 281 281 279 276 273 271 268 268 269 272 272 265 258 258 259 257 256 256 255 252 255 254 226 160 143 137 127 130 156 188 205 208 203 192
359 354 1 341 312 313 328 334 336 325 308 311 320 319 317 316 315 316 317 317 316 316 312 308 307 306 304 302 301 299 297 297 296 295 293 291 292 293 293 292 293 294 297 300 299 297 297 296 292 287 283 283 283 281 278 276 274 271 270 269 267 266 266 264 261 260 259 259 263 263 256 254 251 223 167 148 146 139 123 113 114 123 142 157 158 154
Height
731 741 743 740 736 730 726 724 727 727 726 728 726 719 716 719 717 708 707 708 708 719 722 717 719 715 711 712 709 707 707 714 719 718 719 724 732 737 738 740 742 745 747 746 749 754 756 759 761 763 764 766 768 770 772 774 776 777 778 778 779 780 782 783 784 786 787 788 790 791 792 793 794 795 795 796 797 798 799 800 800 801 801 802 802 803
733 745 742 730 728 727 726 726 726 729 730 732 731 725 719 719 714 707 710 709 710 723 725 717 719 716 712 712 707 706 710 716 721 722 722 721 725 727 730 736 740 743 744 744 747 751 753 756 759 761 763 765 766 768 772 774 776 777 778 778 778 780 781 782 784 785 787 788 789 791 792 793 794 795 796 797 798 799 800 801 801 801 802 802 803 804
742 744 733 723 723 726 727 728 729 731 733 735 733 731 730 722 713 714 716 712 713 726 730 724 724 721 711 708 708 710 713 716 718 721 721 721 723 724 725 733 739 742 744 744 746 749 751 754 757 760 762 765 766 768 773 775 776 777 777 777 778 779 781 782 784 785 786 788 789 790 791 792 793 795 796 797 799 800 801 801 802 802 802 803 803 804
745 736 724 719 722 727 730 730 732 735 735 737 735 736 736 723 718 724 723 718 716 721 728 727 729 726 716 710 714 713 711 713 717 719 718 717 721 723 722 729 736 740 743 745 746 747 750 753 756 759 762 764 765 769 773 775 776 776 776 777 777 779 780 781 783 784 786 787 788 790 791 792 794 795 797 798 800 801 801 802 802 802 803 803 803 804
735 724 717 720 725 729 733 734 735 740 740 736 734 736 734 722 719 723 723 723 724 724 727 732 741 737 724 723 723 715 711 715 718 718 718 717 719 721 721 726 733 737 740 743 745 746 749 753 756 758 762 763 764 769 773 774 774 774 775 776 776 778 779 781 782 783 785 787 788 790 792 793 795 796 798 799 800 801 802 802 803 803 803 804 804 804
728 721 717 723 727 728 734 737 734 740 743 738 731 729 728 724 720 722 725 729 739 742 731 734 757 751 727 724 726 717 715 720 719 718 721 720 719 721 722 725 731 735 738 740 744 746 747 750 754 757 760 762 764 770 773 773 772 773 773 774 776 777 778 780 781 783 784 786 788 790 792 794 795 797 798 799 800 801 802 803 803 804 804 804 805 805
722 721 720 725 728 730 735 736 731 733 742 742 731 722 722 724 725 727 728 734 747 748 729 729 755 758 736 725 721 715 717 720 721 721 722 722 721 723 724 725 729 735 739 740 743 745 746 749 752 755 758 761 764 770 772 771 771 771 772 773 774 776 777 779 781 782 784 786 788 790 792 794 795 796 798 799 800 801 802 803 804 804 805 805 805 806
719 721 726 728 730 735 737 735 728 726 738 742 730 722 723 724 728 728 729 736 739 736 730 728 740 754 749 732 718 715 720 723 724 726 724 722 721 722 724 724 726 731 735 739 741 743 745 748 750 753 757 760 764 770 771 769 769 769 770 771 773 775 777 778 781 782 784 786 787 790 792 794 795 796 798 799 800 802 803 803 804 804 805 806 806 806
720 724 730 730 734 738 734 729 722 720 731 732 723 722 724 724 726 725 727 734 732 738 748 737 732 752 755 733 717 718 725 728 728 727 726 722 720 721 722 724 725 727 730 735 740 742 744 746 748 751 754 757 761 769 771 767 767 768 768 770 772 773 776 777 780 782 784 786 787 789 791 793 795 796 798 799 800 802 803 804 804 805 806 806 806 807
719 720 722 726 734 734 727 720 715 717 723 721 719 723 726 725 724 724 730 733 736 751 759 743 735 753 756 735 723 725 729 732 729 727 726 723 723 723 725 727 729 730 730 733 737 739 741 743 746 749 751 755 758 766 772 766 764 767 767 769 771 772 775 776 779 781 783 786 787 788 791 792 794 796 798 799 800 802 803 804 805 805 806 807 807 808
714 715 718 724 727 724 719 715 713 716 718 717 723 729 730 728 724 727 732 735 749 763 757 742 734 747 757 742 727 725 726 727 728 728 728 726 726 727 729 732 731 732 732 733 734 735 737 740 744 747 750 754 756 765 772 766 762 765 766 767 769 771 774 775 778 780 782 785 786 787 790 791 793 795 797 798 800 801 803 804 805 806 807 807 808 808
714 718 723 722 719 718 719 719 716 716 716 720 727 733 738 737 734 741 742 744 765 769 750 736 729 739 757 748 731 726 721 721 725 728 730 729 730 731 733 733 733 734 735 735 736 737 739 741 742 745 748 752 755 760 767 764 761 764 765 766 768 770 772 774 777 779 782 784 786 787 789 791 792 794 796 797 799 801 803 804 805 806 807 808 808 809
723 721 717 716 717 718 724 727 723 719 719 726 731 739 751 756 758 767 764 761 770 763 742 733 733 741 748 737 728 726 722 721 722 723 727 728 731 734 734 735 736 737 737 737 739 742 743 744 743 743 745 748 751 755 760 761 760 763 765 766 767 768 770 773 776 778 781 783 785 786 788 790 792 794 796 797 799 801 802 804 805 806 807 807 808 809
736 727 715 716 718 716 723 731 732 727 723 729 733 740 755 766 777 784 774 768 769 758 740 734 740 749 745 731 723 722 721 721 720 722 726 728 733 736 734 734 737 738 739 741 743 745 746 746 744 744 744 745 749 753 756 758 760 763 765 767 768 768 769 772 774 777 779 782 784 785 788 790 791 793 795 797 799 800 802 803 804 805 806 807 808 809
748 743 724 719 718 715 720 723 725 723 721 725 723 731 748 758 772 780 774 771 769 759 746 741 748 754 752 739 722 718 721 720 722 725 728 732 734 735 734 735 738 741 742 743 745 747 748 747 746 746 746 746 749 752 755 757 760 762 764 767 768 769 770 771 773 776 778 781 783 785 787 789 791 793 795 797 799 800 802 803 804 805 806 807 808 809
746 742 718 711 712 714 720 716 713 720 726 721 714 728 743 742 749 760 762 759 760 764 759 751 749 743 741 736 720 719 725 722 725 728 730 735 734 735 739 739 742 744 745 746 747 748 748 748 749 748 748 748 750 753 755 758 760 762 764 766 768 769 770 772 773 775 778 780 783 784 786 789 791 792 794 796 798 800 801 803 804 805 806 806 807 808
746 739 713 709 715 714 718 714 710 721 731 726 725 735 733 724 733 750 757 750 754 771 764 751 748 738 737 739 725 723 728 725 728 731 732 736 736 739 743 743 745 747 747 749 748 748 749 749 750 751 751 751 753 755 757 759 761 762 764 766 767 769 770 772 774 776 778 780 782 784 786 788 790 792 794 795 797 799 801 803 803 805 806 806 807 808
741 743 721 714 722 714 709 715 714 714 722 730 735 730 720 722 729 740 758 760 763 774 762 747 751 745 744 747 732 726 731 729 730 731 732 737 739 743 745 745 748 749 750 752 750 750 750 750 751 752 753 755 755 757 758 760 761 762 764 766 767 768 769 771 773 775 778 780 782 784 785 788 790 792 793 795 797 798 800 802 803 805 806 807 807 807
734 747 733 718 722 714 705 718 727 718 714 723 726 718 721 741 746 744 758 767 770 775 764 751 748 742 743 745 735 731 734 731 729 729 733 738 740 745 748 748 750 750 752 753 753 753 752 752 754 754 755 757 757 759 759 761 762 763 765 766 766 768 770 772 773 774 777 780 782 784 785 788 790 792 794 795 796 798 799 801 803 804 805 806 807 807
729 747 748 726 716 714 710 722 735 729 716 715 719 719 722 736 744 745 748 754 764 771 768 761 753 746 744 738 732 733 731 729 731 730 733 737 739 745 749 750 751 752 753 754 756 757 756 756 757 757 758 759 759 760 761 762 763 764 765 766 766 768 771 773 773 773 776 779 782 784 786 789 791 793 794 795 797 798 799 801 802 804 805 805 807 807
729 744 754 736 721 722 724 726 730 731 725 723 727 731 731 729 733 740 740 740 749 761 765 766 762 754 743 731 729 733 730 731 732 731 733 737 741 747 750 752 753 753 754 755 757 759 759 760 760 760 761 761 761 762 762 763 764 765 766 766 767 769 771 774 776 776 778 779 782 785 786 789 791 793 795 796 797 799 800 801 802 803 804 804 806 807
736 744 752 747 737 736 730 720 717 721 724 727 731 733 735 732 736 752 757 745 741 752 760 765 765 757 742 730 729 731 731 733 733 731 735 739 744 749 752 754 755 755 756 756 757 758 760 761 762 762 763 763 764 765 765 766 766 766 767 767 768 769 771 774 777 779 779 780 783 785 787 789 791 793 795 795 797 798 800 801 801 802 803 803 804 806
738 744 751 750 742 735 726 715 713 715 717 724 728 728 730 732 736 755 764 752 745 750 752 756 764 760 746 733 731 730 729 733 734 732 736 742 747 751 753 755 756 756 757 757 758 759 760 761 763 764 765 766 767 768 768 769 769 770 769 769 769 769 771 773 776 777 779 780 783 785 787 789 791 793 794 794 796 798 799 801 802 802 803 803 804 805
743 747 754 754 742 731 724 716 712 712 717 727 729 726 729 733 734 740 745 744 750 753 751 758 765 760 748 736 732 732 729 731 734 733 738 746 749 752 754 756 757 757 758 759 759 760 761 762 764 765 767 768 769 770 771 771 772 773 773 773 772 772 772 773 774 775 777 779 782 784 786 788 791 794 794 793 794 796 798 801 803 803 803 804 805 805
750 750 754 760 758 749 740 732 725 720 721 728 732 730 731 731 732 735 734 741 754 754 753 762 765 757 748 738 733 734 732 732 733 732 739 747 750 752 755 756 757 758 758 759 759 760 760 761 762 765 767 768 770 772 773 774 774 775 775 775 775 775 775 776 776 776 777 779 781 784 786 787 790 794 795 793 793 794 797 800 803 804 804 805 805 804
751 751 752 762 769 766 758 749 742 737 733 734 735 734 734 733 737 741 741 750 761 755 751 758 760 754 747 740 739 738 736 737 735 734 739 746 749 752 755 757 758 758 759 760 760 761 761 762 763 764 766 768 770 772 773 775 776 776 777 776 776 777 778 779 779 779 780 781 782 784 785 786 788 790 792 792 792 793 795 798 801 803 804 805 805 804
752 754 753 758 761 759 754 745 737 739 743 744 741 737 735 735 737 742 749 756 758 756 756 754 752 754 751 745 746 745 741 742 740 738 741 746 750 752 755 757 758 758 760 760 761 763 763 764 765 765 767 768 769 771 772 774 776 777 777 778 778 779 779 780 781 781 781 782 783 784 785 787 787 785 787 789 790 792 794 796 798 800 800 802 803 803
757 760 756 756 755 750 747 743 738 740 745 744 743 741 738 737 738 744 753 754 751 758 764 752 747 757 755 747 748 747 746 746 745 744 744 745 750 753 755 757 758 759 760 761 763 765 765 767 767 767 769 769 769 771 772 774 776 777 778 778 779 780 781 781 782 782 782 782 783 784 785 786 785 783 785 788 790 792 794 795 796 797 797 798 799 799
758 763 756 754 754 748 744 743 740 741 742 740 742 742 740 740 742 746 750 747 747 757 760 750 750 758 753 748 747 746 746 747 747 748 748 746 748 751 754 757 758 758 760 761 763 765 766 768 769 769 770 770 771 772 773 775 776 777 778 778 779 780 780 781 781 781 782 782 783 784 784 785 784 785 787 788 790 792 794 795 795 794 795 795 795 795
756 762 756 754 755 749 745 743 740 741 743 742 741 739 738 739 740 741 743 741 743 750 750 746 751 753 748 746 746 744 745 744 744 747 749 748 749 749 752 756 757 757 759 760 762 764 767 770 770 771 771 770 771 772 773 774 775 777 778 778 779 779 779 780 781 781 782 783 783 784 784 785 785 786 787 788 789 790 791 792 792 791 792 791 791 791
757 762 756 757 762 758 750 746 744 745 746 745 742 739 739 741 741 742 744 743 745 749 748 748 754 754 746 743 744 745 745 744 743 745 746 749 750 749 751 754 756 756 756 757 760 764 768 771 772 772 772 772 773 773 773 774 774 776 778 778 778 779 779 780 781 781 782 783 783 784 784 785 785 786 786 787 788 788 788 788 788 788 789 788 788 789
759 762 759 762 770 765 754 750 748 745 745 747 746 745 745 745 746 747 744 743 747 752 752 754 758 757 750 745 744 745 747 748 748 746 747 749 748 747 749 751 753 755 755 755 758 762 766 770 772 774 774 775 775 775 775 775 774 776 777 778 778 778 779 780 781 782 782 782 783 784 784 784 785 785 786 786 786 787 786 786 786 787 787 787 788 788
756 761 762 766 772 767 757 753 752 752 759 760 753 750 749 746 748 751 747 742 745 750 755 757 755 753 753 752 749 750 754 757 755 752 753 753 749 747 747 748 749 753 754 755 757 759 763 767 771 775 776 776 776 776 776 776 775 776 777 778 779 779 779 780 780 781 782 782 783 783 783 784 784 784 785 785 785 785 785 785 786 786 786 787 787 788
756 760 762 763 771 772 763 759 762 769 774 766 749 745 748 747 751 755 753 750 749 750 753 754 750 750 754 755 754 755 758 761 760 758 756 755 753 751 750 749 749 750 753 756 757 759 762 766 771 775 777 778 778 778 778 777 777 777 778 778 779 779 779 779 780 781 781 782 782 783 783 783 783 784 784 784 785 785 785 785 785 785 786 786 786 786
758 760 763 764 769 772 766 767 777 780 770 754 742 742 745 746 751 755 754 753 754 754 755 755 756 756 756 755 755 756 757 760 762 761 758 756 755 755 755 755 753 751 754 757 759 761 764 768 772 776 778 780 780 781 780 779 778 778 778 778 778 778 779 779 779 780 780 781 782 782 782 783 783 783 783 784 784 784 785 785 785 785 785 785 785 785
753 757 763 767 770 773 773 776 780 773 755 745 746 750 752 752 756 761 763 760 758 760 761 760 761 761 758 756 755 755 758 761 763 762 759 758 759 760 762 762 759 757 758 760 762 764 767 771 774 776 778 780 781 781 780 778 778 778 777 777 777 778 778 779 779 779 779 780 780 781 781 781 782 783 783 784 784 784 784 784 784 784 784 784 784 784
749 756 764 770 772 775 777 775 770 764 757 756 761 764 765 765 765 768 773 769 762 762 764 765 765 764 762 760 759 759 762 765 766 764 762 762 763 764 765 765 764 763 762 762 762 765 769 772 774 776 778 779 781 781 780 779 779 778 778 778 777 777 777 777 778 778 778 779 779 779 780 780 781 782 782 783 783 783 783 783 783 783 783 783 782 782
748 755 762 769 771 772 775 775 773 772 771 771 772 770 769 770 769 770 775 774 767 766 768 769 770 770 769 769 768 768 769 771 772 772 769 767 766 765 766 766 765 766 766 765 766 768 771 773 774 776 777 778 779 781 781 780 779 778 778 777 777 776 776 776 776 777 777 778 778 778 779 779 780 780 781 781 782 782 782 782 782 782 781 781 781 781
748 752 757 765 769 770 775 779 778 777 778 779 776 771 770 772 771 771 776 777 776 774 773 772 773 774 774 774 774 774 776 778 778 778 775 772 770 770 770 769 767 768 768 768 770 771 771 773 774 776 777 778 779 780 780 779 778 777 777 776 776 776 775 775 776 776 776 777 777 777 778 778 778 779 779 780 780 780 781 780 780 780 780 780 779 779
756 758 760 766 770 770 775 778 774 774 783 785 778 774 774 773 773 777 784 786 784 781 777 775 776 777 776 777 777 778 780 781 780 779 777 775 774 774 773 772 772 772 770 770 771 772 772 772 773 775 777 778 778 778 778 778 777 776 775 775 775 774 774 775 775 775 776 776 776 776 777 776 777 777 778 778 779 779 779 779 779 779 778 778 778 777
771 771 768 768 770 770 775 779 775 777 788 788 780 778 777 774 778 786 790 789 787 783 780 778 779 779 779 780 780 780 780 780 779 778 777 776 775 774 774 774 775 774 773 773 772 772 773 773 773 774 775 776 776 776 776 776 775 774 774 773 773 773 773 773 773 773 774 774 774 775 775 774 775 775 775 776 777 777 777 777 778 777 777 776 776 776
779 782 776 773 773 772 776 780 778 782 794 792 782 779 779 781 789 793 791 788 785 783 781 781 781 781 781 781 781 780 780 780 780 779 778 778 777 776 775 775 774 774 774 774 773 773 773 773 773 774 774 773 773 773 773 773 773 772 772 771 771 771 771 771 771 772 772 772 772 773 772 772 772 772 773 774 774 775 775 776 776 776 775 775 775 774
776 783 780 775 777 780 781 784 785 790 795 790 783 782 783 787 792 791 787 786 784 782 783 782 780 781 781 781 781 780 780 780 780 780 779 778 777 777 776 775 774 774 773 772 772 772 772 771 771 771 771 771 771 770 770 770 770 770 770 769 769 769 769 769 770 770 770 770 770 770 770 770 770 770 771 771 772 772 773 774 774 774 774 774 774 773
774 780 779 775 780 787 788 787 791 795 791 784 783 786 786 786 787 786 786 786 784 783 783 781 779 780 781 782 782 781 780 780 779 779 778 777 776 775 775 774 773 772 771 770 770 769 769 769 769 768 768 768 768 768 768 768 768 768 768 767 767 768 768 768 768 768 768 768 768 768 768 768 768 768 768 768 769 770 770 771 772 772 773 773 772 772
775 776 778 779 782 786 787 784 785 786 782 779 782 784 784 785 785 784 785 784 782 781 781 780 781 781 782 783 783 782 781 780 779 778 776 775 774 773 772 772 772 771 770 769 768 767 767 767 767 766 766 766 766 766 766 765 765 765 765 765 766 766 766 766 766 765 765 765 765 765 765 765 765 765 765 766 767 767 768 768 769 770 771 771 771 772
779 779 780 782 783 784 784 781 779 780 779 779 781 783 783 784 783 782 784 785 784 784 782 782 784 783 783 784 783 782 782 780 779 778 775 774 773 772 771 769 768 768 767 766 766 765 765 764 765 764 763 763 763 763 763 763 763 762 762 763 763 763 763 763 763 763 762 762 762 762 763 763 762 763 763 763 764 765 765 765 766 768 770 771 772 772
786 789 786 786 788 790 790 785 781 782 782 781 781 782 781 782 784 786 787 788 788 787 786 785 785 785 785 785 784 783 782 781 780 778 775 774 773 773 772 770 766 765 765 763 763 762 762 761 761 760 760 761 761 761 762 762 761 761 761 761 761 761 761 760 760 760 759 760 760 760 760 760 760 760 761 761 762 763 763 764 765 767 768 770 771 772
788 793 791 789 789 791 791 786 782 783 783 782 783 783 783 786 788 788 789 789 789 789 788 787 787 786 785 785 785 784 783 782 781 779 777 775 773 772 772 770 767 765 763 762 761 760 759 759 759 759 759 759 759 760 761 760 760 760 759 759 758 758 758 757 758 758 757 758 758 758 757 757 757 757 759 759 760 761 762 763 765 766 768 769 770 771
786 791 790 790 791 791 788 786 786 789 788 786 786 787 788 790 790 789 790 790 789 789 788 788 788 788 787 786 786 784 783 781 780 778 777 775 773 772 771 769 767 765 763 761 761 760 759 758 758 759 759 759 759 760 759 759 759 758 757 757 756 755 754 754 754 755 755 755 755 755 754 754 754 756 757 758 759 760 762 763 764 765 767 768 769 770
789 792 790 792 796 795 791 791 794 798 796 793 791 791 792 791 791 790 791 790 789 789 789 788 788 787 786 785 784 783 782 780 778 777 775 773 771 770 769 768 767 765 762 761 760 759 758 757 757 757 757 757 758 758 757 757 756 755 755 754 753 752 751 751 751 751 751 751 751 751 751 751 753 754 756 757 759 760 761 763 764 765 766 767 768 769
795 797 797 800 802 800 798 798 799 801 800 796 795 794 793 791 791 791 790 790 789 789 788 787 787 785 784 783 782 781 780 778 776 775 773 771 769 769 768 767 765 763 762 761 760 759 757 757 757 756 755 755 755 755 754 753 752 752 751 751 750 750 749 748 748 748 748 748 748 748 749 750 751 752 754 756 758 759 761 762 764 766 767 767 768 769